Wind_Speed
24 24 25 26 26 26 27 28 29 27 27 26 27 27 28 28 28 29 29 30 30 30 30 30 30 31 31 32 32 32 32 32 33 33 33 34 35 36 37 37 38 38 39 39
25 26 26 27 26 27 28 28 28 28 27 26 26 27 27 28 28 29 30 30 30 30 30 30 30 30 31 31 31 31 32 32 32 33 33 33 34 35 36 36 37 37 37 37
28 27 27 28 26 27 27 27 28 28 27 26 27 27 27 27 28 28 29 29 29 29 30 30 30 30 30 30 30 31 31 32 32 33 33 33 33 34 34 34 34 34 35 36
28 28 28 26 25 26 26 26 26 26 26 26 26 26 27 27 28 29 29 28 28 29 29 29 29 29 29 29 30 30 30 31 32 32 32 32 32 32 32 33 33 33 33 34
26 27 26 25 25 25 26 25 26 26 26 26 26 26 27 27 28 28 28 28 28 28 28 27 27 27 28 28 29 29 29 29 29 30 30 30 30 30 31 31 31 32 32 32
24 25 25 24 24 25 26 26 26 26 26 26 26 27 26 27 28 28 27 27 27 27 27 27 26 27 27 28 28 28 28 28 27 28 28 29 30 30 30 29 29 30 30 30
24 25 24 23 23 24 25 25 25 26 26 27 27 27 26 27 27 27 27 26 26 26 26 27 27 26 26 26 26 26 26 26 26 26 27 28 28 28 28 28 28 28 28 29
24 25 23 23 24 24 24 25 25 26 27 27 27 27 26 26 26 26 26 26 27 27 27 26 26 26 25 25 25 24 25 25 25 25 26 26 26 26 27 27 27 27 27 27
24 23 23 23 24 24 24 24 25 26 26 27 27 26 26 25 25 25 25 25 26 26 25 25 25 24 24 24 23 23 23 23 23 24 24 24 24 24 25 25 25 25 25 25
24 24 24 24 24 25 25 25 25 25 25 25 25 25 24 24 25 24 24 24 24 23 23 23 23 23 22 22 22 22 22 22 22 21 21 21 22 22 23 23 24 23 24 24
24 24 25 25 25 26 26 25 24 24 24 24 24 24 24 23 23 24 23 23 22 22 22 21 21 21 21 21 21 20 20 20 20 20 20 20 20 20 21 21 21 21 22 22
22 22 23 22 24 26 26 25 24 23 23 23 24 23 22 22 21 21 21 21 21 21 20 20 20 20 20 20 20 19 19 18 18 18 18 18 19 19 19 19 19 19 20 21
21 20 20 21 22 23 24 24 24 23 23 23 22 21 20 20 20 20 20 20 20 19 19 19 19 19 19 19 18 17 17 16 17 17 17 17 17 17 17 17 18 18 19 19
20 21 20 19 20 21 21 22 22 22 21 21 20 19 19 19 19 19 18 18 18 18 18 18 18 18 18 18 17 16 16 16 16 16 16 16 16 16 16 16 17 17 18 17
19 19 19 19 19 19 19 20 21 21 21 20 19 18 18 18 18 18 17 17 16 17 17 17 18 18 17 16 16 15 15 16 16 16 16 15 15 15 15 16 16 16 16 17
16 17 17 18 18 17 17 18 19 19 19 19 18 18 17 17 17 17 17 16 16 15 15 15 16 16 16 15 14 14 14 15 15 15 15 14 14 14 14 14 15 15 15 16
15 15 16 16 17 16 15 16 16 17 17 17 17 17 16 16 15 15 15 15 15 14 14 14 14 15 15 14 14 13 14 14 14 14 13 13 13 14 14 14 15 15 16 16
15 15 15 15 15 15 14 14 14 15 14 14 14 14 14 14 14 14 13 13 13 13 13 13 14 14 13 13 12 13 13 13 12 12 12 13 13 14 14 14 15 15 16 15
14 13 13 14 14 14 14 13 13 14 14 13 13 13 13 13 13 13 13 12 12 13 13 12 12 12 12 12 12 12 12 11 11 11 12 12 13 13 14 14 15 15 15 15
13 13 13 13 14 14 14 13 13 13 13 13 12 12 12 12 12 12 12 12 12 12 12 11 11 11 12 12 12 12 11 11 11 11 12 12 13 13 14 14 14 15 15 14
13 13 13 14 14 14 14 14 14 13 13 12 12 11 12 11 11 11 11 11 11 11 11 11 11 11 11 11 12 12 11 10 10 11 12 12 13 13 14 14 14 14 13 13
14 15 15 14 14 14 14 14 14 14 14 12 11 11 11 11 11 11 11 11 11 11 11 11 11 11 11 11 11 11 11 11 11 11 12 12 13 13 14 14 14 13 13 12
15 15 15 14 14 14 14 14 14 13 13 13 12 12 12 11 11 11 11 11 11 11 11 11 11 11 11 11 11 11 11 11 11 12 12 12 13 13 13 13 13 12 12 11
15 14 14 15 14 14 13 13 13 13 13 14 13 13 12 11 11 11 12 12 12 11 11 11 11 11 11 11 11 11 11 11 11 11 12 12 12 12 13 12 12 12 11 11
14 14 14 14 13 13 13 13 13 14 14 14 14 13 12 12 11 11 11 11 11 11 11 11 10 10 10 10 10 10 11 11 11 11 12 12 12 12 12 12 12 11 11 11
13 13 13 13 13 13 13 12 13 13 14 14 13 13 12 12 12 11 11 11 11 11 11 10 10 10 10 10 10 10 11 11 12 12 12 12 12 12 12 12 11 11 11 10
13 13 13 12 12 12 12 12 12 12 12 13 13 13 13 12 12 12 12 12 11 11 11 10 10 10 10 10 10 11 11 12 12 12 12 12 12 12 11 11 11 11 10 10
Wind_Direction
261 262 263 263 262 262 263 265 267 269 270 271 271 271 271 271 272 273 274 275 275 275 275 276 276 276 274 273 272 271 272 273 275 275 275 275 275 275 276 278 278 278 279 279
262 262 263 264 263 262 263 265 267 268 269 271 272 273 273 273 273 273 275 276 275 275 275 276 276 276 275 274 273 272 272 274 274 275 276 277 277 277 278 279 280 279 279 280
264 264 265 263 263 264 264 265 267 269 270 271 272 273 273 273 274 274 275 276 276 276 276 276 276 276 275 274 274 274 274 275 275 277 277 277 278 279 279 280 281 280 280 281
265 264 264 265 263 263 264 265 267 269 270 272 273 272 273 274 275 275 276 277 277 277 276 276 276 276 275 275 274 274 275 276 276 276 277 277 278 279 280 280 281 281 282 283
266 265 264 262 263 263 264 265 266 268 269 271 273 272 273 275 276 277 277 278 277 276 276 277 277 277 276 276 275 275 277 278 277 277 276 277 278 280 281 281 282 282 283 283
265 265 265 263 263 263 264 265 266 268 269 271 273 272 274 277 278 279 277 277 277 277 276 276 278 279 279 278 277 277 277 277 278 279 277 277 279 280 282 282 283 284 284 284
265 266 267 265 263 263 264 266 266 268 270 271 272 274 274 276 278 278 277 276 276 277 277 277 277 279 280 279 278 278 278 279 280 281 279 279 279 280 281 282 284 284 285 286
263 265 269 266 264 265 266 266 267 269 270 271 273 273 274 276 277 277 276 275 276 277 278 276 276 278 279 279 278 279 280 281 281 282 282 282 281 280 282 284 284 285 286 287
263 265 266 266 266 265 267 270 269 269 271 273 273 272 273 274 276 277 276 275 277 277 276 275 275 276 277 278 278 279 281 282 283 283 284 283 282 283 284 286 287 287 288 289
263 264 265 264 265 266 267 270 271 271 271 272 272 271 272 274 275 276 276 277 276 275 274 274 275 275 277 278 278 280 281 282 282 283 286 286 286 287 287 288 289 289 290 292
264 265 265 265 266 267 267 269 269 269 270 271 272 272 271 273 275 276 276 276 275 273 273 272 274 276 278 279 279 280 281 281 282 286 289 289 289 291 292 293 293 293 294 295
266 268 268 266 265 267 267 267 268 268 269 271 272 272 272 273 275 276 276 275 273 272 271 271 273 276 278 278 278 278 280 281 284 287 288 289 291 292 295 297 298 297 298 298
266 265 268 269 268 267 268 268 268 268 269 271 272 273 272 272 274 275 276 277 273 269 269 271 273 275 276 277 277 277 278 281 284 286 288 290 292 293 296 298 301 302 304 305
266 264 265 268 270 270 269 268 268 268 270 270 271 272 272 272 274 276 277 278 274 270 269 271 273 274 274 275 275 273 274 278 282 286 288 290 292 294 296 300 303 307 309 312
271 268 266 268 271 271 271 271 269 269 270 268 269 271 272 274 275 275 277 276 274 271 270 270 271 272 272 274 273 272 273 277 282 285 287 290 294 295 298 301 305 308 311 314
274 271 268 268 270 271 273 272 271 270 269 267 268 269 271 274 274 274 275 275 274 274 272 270 270 270 272 273 272 272 274 277 281 284 288 291 294 297 300 303 305 308 310 312
274 274 272 269 269 270 272 272 271 269 268 268 267 268 271 273 274 274 276 275 273 273 272 271 269 270 272 271 270 270 274 279 282 285 288 290 292 295 298 301 305 307 309 309
275 276 275 272 273 273 274 274 273 271 270 271 270 268 270 272 273 274 276 274 271 270 271 271 270 271 271 269 267 271 277 282 285 287 289 290 292 294 298 300 303 306 309 310
276 277 279 276 275 273 273 272 272 274 273 272 270 269 272 275 274 275 276 275 273 269 269 271 270 270 269 268 269 273 278 282 286 288 291 293 295 297 299 302 304 307 308 309
277 277 279 278 275 271 269 270 272 273 272 271 271 271 271 273 273 274 275 275 272 268 267 270 270 271 270 268 270 274 277 281 286 289 293 296 298 300 302 306 309 310 309 309
280 281 281 280 277 273 270 269 270 271 271 271 271 271 269 270 273 274 274 272 268 266 268 272 273 273 271 270 271 271 274 279 286 292 296 298 299 302 305 308 309 310 311 312
279 280 281 281 279 276 272 270 270 270 269 270 272 272 270 270 271 273 274 270 265 265 271 274 274 275 272 270 270 270 271 277 286 295 299 300 302 305 306 307 306 306 307 310
279 280 280 281 280 277 274 270 268 268 266 266 269 270 271 271 270 272 273 271 266 268 271 270 270 270 268 268 270 271 273 279 288 295 300 302 303 305 307 308 307 306 306 307
280 280 279 279 278 277 275 271 268 265 265 265 268 269 270 271 272 273 274 272 268 270 269 268 266 265 265 267 267 269 274 281 288 295 300 304 305 306 307 308 308 308 307 306
282 281 279 276 275 275 274 270 267 265 265 267 268 268 268 271 273 274 276 275 272 270 268 265 263 264 266 266 266 268 274 280 286 292 298 302 305 306 307 309 310 310 308 307
281 280 278 276 275 274 273 272 270 267 264 264 263 265 267 269 272 274 274 274 272 267 265 263 264 265 265 264 265 270 273 278 284 291 296 299 302 304 306 309 312 313 311 307
282 280 280 278 276 274 273 273 272 268 264 263 261 262 264 267 270 269 269 270 269 264 261 263 266 266 265 268 271 273 276 278 283 289 294 297 300 302 304 307 310 312 312 309
Height
5596 5596 5596 5597 5597 5597 5597 5598 5598 5600 5599 5600 5598 5598 5598 5598 5597 5597 5596 5596 5595 5594 5593 5591 5590 5588 5587 5586 5586 5585 5585 5584 5583 5582 5581 5579 5578 5577 5576 5575 5573 5571 5570 5568
5588 5588 5588 5588 5589 5589 5589 5590 5590 5590 5591 5592 5590 5590 5590 5589 5589 5588 5588 5587 5586 5585 5584 5582 5581 5579 5578 5577 5577 5576 5575 5574 5573 5572 5571 5570 5568 5567 5565 5564 5562 5560 5558 5557
5580 5580 5579 5579 5582 5581 5582 5582 5582 5581 5584 5583 5582 5582 5581 5581 5581 5580 5579 5578 5577 5576 5574 5573 5572 5571 5569 5568 5567 5567 5566 5565 5564 5563 5561 5560 5558 5557 5555 5553 5551 5549 5548 5546
5571 5572 5571 5576 5574 5574 5573 5574 5574 5574 5574 5574 5574 5573 5573 5573 5572 5571 5570 5569 5568 5567 5566 5564 5563 5562 5561 5560 5559 5558 5557 5556 5554 5553 5552 5550 5549 5547 5545 5544 5542 5540 5538 5535
5562 5561 5562 5566 5566 5566 5565 5566 5566 5566 5566 5566 5565 5564 5565 5564 5563 5563 5562 5561 5559 5558 5557 5556 5555 5554 5553 5551 5550 5549 5548 5546 5545 5544 5542 5541 5540 5538 5536 5534 5532 5530 5528 5526
5554 5553 5554 5559 5559 5557 5557 5558 5559 5558 5558 5558 5557 5557 5558 5556 5555 5554 5553 5552 5551 5550 5549 5548 5547 5546 5544 5543 5542 5540 5539 5537 5536 5535 5533 5532 5531 5529 5527 5525 5523 5521 5519 5517
5546 5545 5547 5550 5550 5549 5550 5551 5550 5549 5549 5549 5549 5549 5550 5548 5546 5545 5544 5543 5542 5541 5540 5539 5538 5537 5536 5535 5533 5532 5530 5529 5528 5526 5525 5523 5521 5520 5518 5517 5515 5513 5511 5508
5539 5539 5543 5542 5541 5542 5542 5541 5541 5541 5541 5541 5541 5540 5540 5539 5538 5537 5536 5535 5534 5533 5532 5531 5530 5529 5528 5527 5526 5524 5523 5521 5520 5518 5516 5515 5513 5512 5510 5509 5507 5505 5502 5500
5533 5535 5535 5534 5533 5533 5533 5533 5533 5533 5533 5533 5532 5532 5531 5530 5529 5528 5527 5527 5526 5525 5524 5523 5522 5521 5520 5519 5518 5517 5515 5514 5512 5510 5509 5507 5506 5504 5503 5501 5499 5497 5495 5492
5525 5526 5526 5525 5525 5525 5525 5525 5525 5525 5525 5524 5524 5523 5523 5522 5521 5520 5519 5519 5518 5517 5516 5515 5515 5514 5513 5512 5511 5510 5508 5507 5505 5503 5502 5500 5499 5497 5495 5494 5492 5490 5488 5485
5517 5518 5518 5518 5517 5517 5517 5517 5517 5517 5517 5517 5516 5515 5515 5514 5513 5512 5512 5511 5510 5510 5509 5508 5508 5507 5506 5505 5504 5503 5502 5500 5499 5497 5496 5494 5492 5490 5489 5487 5484 5483 5481 5478
5510 5511 5510 5511 5510 5509 5509 5510 5510 5509 5509 5509 5508 5507 5507 5506 5506 5505 5504 5503 5503 5502 5502 5501 5501 5500 5500 5499 5498 5497 5496 5494 5493 5492 5490 5488 5487 5485 5483 5481 5479 5476 5474 5472
5503 5503 5503 5503 5503 5502 5502 5502 5502 5502 5501 5501 5500 5500 5499 5499 5498 5498 5497 5496 5495 5495 5495 5495 5494 5494 5493 5493 5492 5491 5490 5489 5488 5487 5485 5483 5482 5480 5478 5476 5474 5471 5469 5466
5496 5496 5496 5497 5496 5495 5495 5495 5494 5494 5494 5494 5493 5493 5492 5492 5491 5491 5490 5489 5488 5488 5488 5488 5488 5488 5487 5487 5486 5486 5485 5484 5483 5482 5480 5479 5477 5475 5474 5472 5470 5467 5464 5461
5490 5489 5489 5490 5489 5489 5488 5488 5488 5488 5487 5487 5487 5486 5486 5486 5485 5484 5484 5483 5482 5482 5482 5482 5482 5482 5482 5481 5481 5480 5480 5479 5478 5477 5476 5474 5472 5471 5469 5467 5465 5463 5460 5457
5484 5483 5483 5483 5483 5483 5482 5482 5482 5481 5481 5481 5481 5480 5480 5480 5479 5478 5478 5477 5477 5476 5476 5476 5476 5476 5476 5476 5476 5475 5475 5474 5473 5472 5471 5470 5468 5466 5465 5463 5461 5459 5456 5454
5479 5478 5478 5478 5477 5477 5477 5476 5476 5475 5475 5475 5475 5475 5475 5474 5474 5473 5473 5472 5472 5471 5471 5471 5471 5471 5471 5471 5471 5471 5471 5470 5469 5468 5466 5465 5464 5462 5461 5459 5457 5454 5452 5449
5474 5474 5473 5473 5472 5472 5472 5471 5471 5470 5470 5470 5470 5470 5470 5469 5469 5468 5468 5467 5467 5467 5467 5467 5467 5467 5467 5467 5467 5467 5466 5466 5465 5463 5462 5461 5460 5458 5457 5455 5453 5450 5448 5445
5470 5469 5468 5468 5467 5467 5467 5467 5466 5466 5466 5466 5466 5466 5465 5465 5464 5464 5464 5463 5463 5463 5463 5463 5463 5463 5463 5463 5463 5463 5462 5462 5461 5460 5458 5457 5456 5454 5453 5451 5449 5446 5444 5441
5465 5465 5464 5464 5463 5463 5463 5463 5463 5462 5462 5462 5461 5461 5461 5461 5460 5460 5459 5459 5459 5459 5459 5459 5459 5459 5459 5459 5459 5459 5458 5458 5457 5456 5455 5453 5452 5450 5448 5447 5444 5442 5440 5437
5461 5461 5460 5459 5459 5459 5459 5459 5458 5458 5458 5458 5457 5457 5457 5457 5456 5456 5456 5456 5455 5455 5455 5455 5455 5455 5455 5455 5455 5455 5454 5454 5453 5452 5451 5450 5448 5446 5444 5442 5440 5438 5436 5434
5456 5456 5455 5455 5454 5454 5454 5454 5454 5454 5453 5453 5453 5453 5453 5453 5452 5452 5452 5452 5452 5452 5452 5451 5451 5451 5451 5451 5451 5450 5450 5450 5449 5448 5447 5445 5444 5442 5440 5438 5436 5435 5433 5430
5451 5451 5450 5450 5449 5449 5449 5449 5449 5449 5449 5449 5449 5449 5449 5449 5448 5448 5448 5448 5448 5448 5448 5447 5447 5447 5447 5447 5446 5446 5446 5446 5445 5444 5443 5441 5440 5438 5436 5434 5433 5431 5429 5427
5446 5446 5445 5445 5444 5444 5444 5444 5444 5444 5444 5445 5445 5445 5445 5445 5445 5444 5444 5444 5444 5444 5443 5443 5443 5443 5443 5442 5442 5442 5442 5441 5441 5440 5438 5437 5436 5434 5432 5431 5429 5427 5426 5424
5441 5441 5440 5440 5440 5440 5440 5439 5440 5440 5440 5440 5440 5440 5440 5440 5441 5440 5440 5440 5439 5439 5439 5439 5439 5439 5438 5438 5438 5438 5438 5437 5436 5436 5434 5433 5432 5430 5429 5427 5426 5424 5422 5421
5436 5436 5436 5436 5435 5435 5435 5435 5435 5435 5435 5435 5436 5436 5436 5436 5436 5436 5436 5436 5435 5435 5435 5435 5435 5435 5434 5434 5434 5434 5433 5433 5432 5431 5430 5429 5428 5427 5425 5424 5422 5421 5419 5418
5432 5431 5431 5431 5431 5431 5431 5430 5430 5430 5431 5431 5431 5431 5432 5432 5432 5432 5432 5432 5431 5431 5431 5431 5431 5431 5430 5430 5430 5429 5429 5429 5428 5427 5426 5425 5424 5423 5422 5420 5419 5417 5416 5415